Regional Weather Roundup
Issued by NWS

Home | Current Version | Previous Version | Text Only | Print | Product List | Glossary Off
Versions: 1 2 3 4 5 6 7 8 9 10 11 12 13 14 15 16 17 18 19 20 21 22 23 24 25 26 27 28 29 30 31 32 33 34 35 36 37 38 39 40 41 42 43 44 45 46 47 48 49 50

000
ASUS43 KTOP 250008
RWRKS

WEATHER ROUNDUP FOR KANSAS
NATIONAL WEATHER SERVICE GOODLAND KS
600 PM CST SAT JAN 24 2015

NOTE:  "FAIR" INDICATES FEW OR NO CLOUDS BELOW 12,000 FEET WITH NO
SIGNIFICANT WEATHER AND/OR OBSTRUCTIONS TO VISIBILITY.

KSZ001>006-013>018-027>032-041>047-250100-
NORTHWEST KANSAS

CITY           SKY/WX    TMP DP  RH WIND       PRES   REMARKS
GOODLAND       CLOUDY    43  31  62 NW8       29.93F
6HR MIN TEMP:  43; 6HR MAX TEMP:  58; 6HR PCP: TRACE;

HAYS           CLOUDY    57  21  24 NW29G35   29.85R
HILL CITY      CLOUDY    47  40  76 W14       29.84F
6HR MIN TEMP:  47; 6HR MAX TEMP:  62; 6HR PCP: TRACE;

RUSSELL        CLOUDY    57  22  25 NW17      29.81R
6HR MIN TEMP:  55; 6HR MAX TEMP:  62;

$$

KSZ061>065-074>080-084>089-250100-
SOUTHWEST KANSAS

CITY           SKY/WX    TMP DP  RH WIND       PRES   REMARKS
DODGE CITY     CLOUDY    54  25  32 W12       29.89R
6HR MIN TEMP:  54; 6HR MAX TEMP:  61;

ELKHART          N/A    N/A N/A N/A MISG        N/A
GARDEN CITY    CLOUDY    50  26  39 NW9       29.90R
6HR MIN TEMP:  50; 6HR MAX TEMP:  60;

GREAT BEND     CLOUDY    54  28  37 W10       29.84S
LIBERAL        MOCLDY    48  28  46 SW8       29.92F
PRATT          CLOUDY    52  28  40 W10       29.86S
$$

KSZ066>073-081>083-090>101-250100-
SOUTHEAST KANSAS

CITY           SKY/WX    TMP DP  RH WIND       PRES   REMARKS
CHANUTE        MOCLDY    54  31  41 SW12      29.82F
6HR MIN TEMP:  53; 6HR MAX TEMP:  63;

COFFEYVILLE    MOCLDY    56  29  35 SW9       29.86S
6HR MIN TEMP:  53; 6HR MAX TEMP:  62;

HUTCHINSON     CLOUDY    58  28  32 W10       29.82F
6HR MIN TEMP:  56; 6HR MAX TEMP:  63;

MEDICINE LODGE   N/A     59  25  27 W12       29.85F
NEWTON         CLOUDY    55  27  33 SW10      29.83S
PARSONS        MOCLDY    55  32  41 SW7       29.85S
6HR MIN TEMP:  53; 6HR MAX TEMP:  63;

WICHITA INTL   CLOUDY    55  28  35 W7        29.83F
6HR MIN TEMP:  55; 6HR MAX TEMP:  66;

WICHITA JABRA  CLOUDY    57  28  33 SW7       29.83F
6HR MIN TEMP:  54; 6HR MAX TEMP:  63;

WICHITA MCCONL CLOUDY    57  29  34 SW7       29.83F
WINFIELD       MOCLDY    54  29  38 SW10      29.85F
6HR MIN TEMP:  54; 6HR MAX TEMP:  63;

$$

KSZ007>012-019>026-033>040-048>060-102>105-250100-
NORTHEAST KANSAS

CITY           SKY/WX    TMP DP  RH WIND       PRES   REMARKS
CONCORDIA      CLOUDY    54  25  32 W9        29.75F
6HR MIN TEMP:  47; 6HR MAX TEMP:  59;

EMPORIA        CLOUDY    53  27  36 SW10      29.78F
6HR MIN TEMP:  53; 6HR MAX TEMP:  61;

LAWRENCE       CLOUDY    53  27  36 SW7       29.75F
6HR MIN TEMP:  52; 6HR MAX TEMP:  62;

MANHATTAN      MOCLDY    55  27  34 SW7       29.74F
6HR MIN TEMP:  50; 6HR MAX TEMP:  60;

MARYSVILLE     CLOUDY    52  28  40 W6        29.72F
OLATHE IND     CLOUDY    50  29  44 SW8       29.77S
6HR MIN TEMP:  50; 6HR MAX TEMP:  61;

OLATHE EXE     CLOUDY    53  28  38 SW7       29.75F
6HR MIN TEMP:  51; 6HR MAX TEMP:  60;

SALINA         MOCLDY    55  28  35 SW10      29.78F
6HR MIN TEMP:  53; 6HR MAX TEMP:  63;

TOPEKA BILLARD CLOUDY    56  28  34 SW7       29.75F
6HR MIN TEMP:  51; 6HR MAX TEMP:  60;

TOPEKA FORBES  CLOUDY    54  28  36 SW8       29.75F
6HR MIN TEMP:  53; 6HR MAX TEMP:  63;

$$



USA.gov is the U.S. government's official web portal to all federal, state and local government web resources and services.